Regional Weather Roundup
Issued by NWS Sioux Falls, SD

Home | Current Version | Previous Version | Graphics & Text | Print | Product List | Glossary On
Versions: 1 2 3 4 5 6 7 8 9 10 11 12 13 14 15 16 17 18 19 20 21 22 23 24 25 26 27 28 29 30 31 32 33 34 35 36 37 38 39 40 41 42 43 44 45 46 47 48 49 50
000
ASUS43 KFSD 290502
RWRFSD

WEATHER ROUNDUP FOR SE SOUTH DAKOTA/SW MINNESOTA/NW IOWA
NATIONAL WEATHER SERVICE SIOUX FALLS SD
1100 PM CST SUN DEC 28 2014

NOTE: "FAIR" INDICATES FEW OR NO CLOUDS BELOW 12,000 FEET WITH NO
SIGNIFICANT WEATHER AND OR OBSTRUCTIONS TO VISIBILITY.


SDZ038>040-050-052>070-290600-
SOUTHEAST SOUTH DAKOTA

CITY           SKY/WX    TMP DP  RH WIND       PRES   REMARKS
CHAMBERLAIN    NOT AVBL
HURON          LGT SNOW  10   6  84 NE14      30.34R FOG     WCI  -6
MADISON        FLURRIES  10  10 100 NE15      30.28R WCI  -6
MITCHELL       LGT SNOW  18  15  88 NE9       30.32R FOG     WCI   7
SIOUX FALLS    LGT SNOW  15  11  83 NE10      30.29R FOG     WCI   2
WINNER         LGT SNOW  19  15  84 E10       30.23R WCI   7
YANKTON        CLOUDY    19  18  93 NE8       30.28R WCI   9
$$

MNZ071-072-080-081-089-090-097-098-290600-
SOUTHWEST MINNESOTA

CITY           SKY/WX    TMP DP  RH WIND       PRES   REMARKS
FAIRMONT       CLOUDY    18  12  79 N7        30.29R WCI   8
JACKSON        CLOUDY    19  18  93 NE8       30.27S WCI   9
LUVERNE        CLOUDY    18  14  86 N10       30.30R WCI   6
MARSHALL       CLOUDY    10   3  72 NW12      30.36R WCI  -4
MONTEVIDEO     CLOUDY    12   9  85 N7        30.39R WCI   2
PIPESTONE      LGT SNOW  10   9  92 NE12      30.28R WCI  -4
REDWOOD FALLS  CLOUDY    16   6  65 N7        30.36R WCI   6
TRACY          CLOUDY    14  10  84 N10       30.33R WCI   1
WINDOM         CLOUDY    18  14  86 N9        30.30R WCI   6
WORTHINGTON    CLOUDY    16 -27  13 N10       30.28R WCI   3
$$

IAZ001>003-012>014-020>022-031-032-NEZ013-014-SDZ071-290600-
NORTHWEST IOWA

CITY           SKY/WX    TMP DP  RH WIND       PRES   REMARKS
DENISON        CLOUDY    21  19  93 NE12      30.20R WCI   9
ESTHERVILLE    CLOUDY    17  15  92 NE10      30.28R FOG     WCI   5
SIOUX CITY     CLOUDY    23  18  81 NE12      30.26R WCI  12
SPENCER        CLOUDY    19  16  88 NE13      30.27R WCI   6
$$

ABBREVIATIONS USED IN REMARKS
   TC - TEMPERATURE IN CELSIUS
  WCI - WIND CHILL INDEX
   HX - HEAT INDEX
  VSB - VISIBILITY




USA.gov is the U.S. government's official web portal to all federal, state and local government web resources and services.